Weather History for Miles City, MT

Change the Weather History Date:

Tuesday, April 1, 2014

  Actual Average Record
Temperature  
Mean Temperature 15 °F 41 °F  
Max Temperature 26 °F 53 °F 76 °F (1991)
Min Temperature 4 °F 29 °F 4 °F (2014)
Degree Days  
Heating Degree Days 50 24  
Month to date heating degree days 50 24  
Since 1 July heating degree days 7144 6699  
Cooling Degree Days 0 0  
Month to date cooling degree days 0 0  
Year to date cooling degree days 0 0  
Moisture  
Dew Point 8 °F    
Average Humidity 83    
Maximum Humidity 92    
Minimum Humidity 74    
Precipitation  
Precipitation 0.00 in 0.03 in 0.53 in (2010)
Month to date precipitation 0.00 0.03  
Year to date precipitation 1.56 1.18  
Sea Level Pressure  
Sea Level Pressure 30.04 in    
Wind  
Wind Speed 9 mph (NE)    
Max Wind Speed 15 mph    
Max Gust Speed 17 mph    
Visibility 6 miles    
Events Fog    
T = Trace of Precipitation, MM = Missing Value Source: NWS Daily Summary

Daily Weather History Graph

Daily Weather History Graph

Search for Another Location

Airport:

Trip Planner

Search our weather history database for the weather conditions in past years. The results will help you decide how hot, cold, wet, or windy it might be!

Date:

Astronomy

Apr. 01, 2014 Rise Set
Actual Time 6:42 AM MDT 7:32 PM MDT
Civil Twilight 6:12 AM MDT 8:03 PM MDT
Nautical Twilight 5:36 AM MDT 8:39 PM MDT
Astronomical Twilight 4:58 AM MDT 9:17 PM MDT
Moon 7:40 AM MDT (4/1) 10:06 PM MDT (4/1)
Length of Visible Light 13h 50m
Length of Day
12h 49m
Waxing Crescent, 5% of the Moon is Illuminated
Apr 1
Waxing Crescent
Apr 7
First Quarter
Apr 15
Full
Apr 22
Last Quarter
Apr 29
New

Hourly Weather History & Observations

Time (MDT) Temp. Windchill Dew Point Humidity Pressure Visibility Wind Dir Wind Speed Gust Speed Precip Events Conditions
12:07 AM 12.9 °F 5.2 °F 10.9 °F 92% 30.06 in 0.2 mi East 4.6 mph - N/A Fog Light Freezing Fog
12:12 AM 14.0 °F 6.5 °F 12.0 °F 92% 30.05 in 1.2 mi East 4.6 mph - N/A   Scattered Clouds
12:14 AM 14.0 °F 6.5 °F 12.0 °F 92% 30.05 in 4.0 mi East 4.6 mph - N/A   Scattered Clouds
12:53 AM 10.0 °F 1.8 °F 8.1 °F 92% 30.17 in 5.0 mi ENE 4.6 mph - N/A   Clear
1:53 AM 9.0 °F -3.2 °F 7.0 °F 92% 30.14 in 10.0 mi NNE 8.1 mph - N/A   Clear
2:53 AM 8.1 °F -2.0 °F 6.1 °F 92% 30.12 in 10.0 mi NNE 5.8 mph - N/A   Clear
3:30 AM 8.1 °F -0.5 °F 6.1 °F 92% 29.99 in 9.0 mi NE 4.6 mph - N/A   Scattered Clouds
3:38 AM 9.0 °F -0.9 °F 6.1 °F 88% 29.98 in 7.0 mi ENE 5.8 mph - N/A   Mostly Cloudy
3:44 AM 9.0 °F 0.6 °F 6.1 °F 88% 29.98 in 1.5 mi ENE 4.6 mph - N/A   Mostly Cloudy
3:50 AM 8.6 °F 0.1 °F 6.8 °F 92% 29.98 in 0.2 mi ENE 4.6 mph - N/A Fog Light Freezing Fog
3:53 AM 8.1 °F -0.5 °F 6.1 °F 92% 30.11 in 0.2 mi NE 4.6 mph - N/A Fog Light Freezing Fog
4:46 AM 6.1 °F -5.6 °F 3.0 °F 87% 29.97 in 1.0 mi NNE 6.9 mph - N/A   Mist
4:53 AM 6.1 °F -5.6 °F 3.0 °F 87% 30.10 in 2.5 mi NNE 6.9 mph - N/A   Overcast
5:01 AM 6.1 °F -4.3 °F 3.0 °F 87% 29.97 in 0.8 mi NNE 5.8 mph - N/A   Mist
5:16 AM 6.1 °F -5.6 °F 3.0 °F 87% 29.97 in 2.0 mi North 6.9 mph - N/A   Overcast
5:23 AM 5.0 °F -8.1 °F 1.9 °F 87% 29.97 in 9.0 mi NNE 8.1 mph - N/A   Overcast
5:53 AM 5.0 °F -4.1 °F 1.9 °F 87% 30.10 in 10.0 mi NNE 4.6 mph - N/A   Mostly Cloudy
6:26 AM 3.9 °F -6.9 °F 1.9 °F 91% 29.97 in 1.8 mi ENE 5.8 mph - N/A   Overcast
6:38 AM 5.0 °F -2.1 °F 1.9 °F 87% 29.97 in 0.5 mi NE 3.5 mph - N/A Fog Light Freezing Fog
6:46 AM 5.0 °F -2.1 °F 1.9 °F 87% 29.97 in 0.2 mi NNE 3.5 mph - N/A Fog Light Freezing Fog
6:53 AM 6.1 °F -2.8 °F 1.9 °F 83% 30.11 in 0.8 mi NNE 4.6 mph - N/A   Mist
6:58 AM 6.1 °F -4.3 °F 1.9 °F 83% 29.97 in 2.0 mi NNE 5.8 mph - N/A   Overcast
7:06 AM 5.0 °F -6.9 °F 1.9 °F 87% 29.97 in 6.0 mi NNE 6.9 mph - N/A   Mostly Cloudy
7:19 AM 5.0 °F -9.1 °F 3.0 °F 92% 29.97 in 10.0 mi NNE 9.2 mph - N/A   Scattered Clouds
7:46 AM 6.1 °F -6.8 °F 3.0 °F 87% 29.96 in 1.8 mi NNE 8.1 mph - N/A   Partly Cloudy
7:53 AM 7.0 °F -5.7 °F 3.9 °F 87% 30.10 in 1.5 mi NNE 8.1 mph - N/A   Partly Cloudy
8:01 AM 7.0 °F -4.5 °F 3.9 °F 87% 29.96 in 10.0 mi NE 6.9 mph - N/A   Clear
8:53 AM 10.9 °F 1.4 °F 7.0 °F 84% 30.08 in 10.0 mi NE 5.8 mph - N/A   Clear
9:53 AM 12.9 °F 2.6 °F 9.0 °F 84% 30.09 in 10.0 mi NE 6.9 mph - N/A   Clear
10:53 AM 15.1 °F 3.3 °F 10.9 °F 84% 30.08 in 10.0 mi NE 9.2 mph - N/A   Clear
11:53 AM 17.1 °F 5.0 °F 12.9 °F 84% 30.07 in 10.0 mi NE 10.4 mph - N/A   Clear
12:53 PM 19.0 °F 6.1 °F 14.0 °F 81% 30.06 in 10.0 mi NE 12.7 mph - N/A   Clear
1:53 PM 21.0 °F 8.1 °F 16.0 °F 81% 30.05 in 10.0 mi NE 13.8 mph - N/A   Clear
2:53 PM 24.1 °F 12.0 °F 18.0 °F 77% 30.04 in 10.0 mi NE 13.8 mph - N/A   Clear
3:53 PM 25.0 °F 13.1 °F 19.0 °F 78% 30.03 in 10.0 mi NE 13.8 mph - N/A   Clear
4:53 PM 26.1 °F 15.6 °F 19.0 °F 75% 30.03 in 10.0 mi NE 11.5 mph - N/A   Clear
5:53 PM 25.0 °F 14.2 °F 19.0 °F 78% 30.04 in 10.0 mi NE 11.5 mph - N/A   Clear
6:53 PM 23.0 °F 11.7 °F 18.0 °F 81% 30.05 in 10.0 mi NE 11.5 mph - N/A   Clear
7:53 PM 19.9 °F 7.9 °F 16.0 °F 85% 30.06 in 10.0 mi NE 11.5 mph - N/A   Clear
8:53 PM 17.1 °F 5.8 °F 14.0 °F 88% 30.07 in 10.0 mi NE 9.2 mph - N/A   Clear
9:53 PM 16.0 °F 4.4 °F 12.9 °F 88% 30.07 in 10.0 mi NNE 9.2 mph - N/A   Clear
10:53 PM 15.1 °F 2.5 °F 12.0 °F 88% 30.06 in 10.0 mi NNE 10.4 mph - N/A   Clear
11:53 PM 14.0 °F 1.2 °F 10.9 °F 88% 30.06 in 10.0 mi NNE 10.4 mph - N/A   Clear